TimeCDT,TemperatureF,Dew PointF,Humidity,Sea Level PressureIn,VisibilityMPH,Wind Direction,Wind SpeedMPH,Gust SpeedMPH,PrecipitationIn,Events,Conditions,WindDirDegrees,DateUTC
12:52 AM,66.0,63.0,90,29.97,10.0,Calm,Calm,-,N/A,,Clear,0,2013-08-30 05:52:00
1:52 AM,64.0,62.1,93,29.97,10.0,Calm,Calm,-,N/A,,Clear,0,2013-08-30 06:52:00
2:52 AM,64.9,63.0,93,29.97,10.0,Calm,Calm,-,N/A,,Clear,0,2013-08-30 07:52:00
3:52 AM,64.0,62.1,93,29.97,10.0,Calm,Calm,-,N/A,,Clear,0,2013-08-30 08:52:00
4:52 AM,63.0,61.0,93,29.95,10.0,Calm,Calm,-,N/A,,Clear,0,2013-08-30 09:52:00
5:52 AM,66.0,63.0,90,29.96,10.0,SSW,4.6,-,N/A,,Clear,200,2013-08-30 10:52:00
6:52 AM,64.9,62.1,90,29.96,10.0,Calm,Calm,-,N/A,,Clear,0,2013-08-30 11:52:00
7:52 AM,66.9,64.0,90,29.96,10.0,Calm,Calm,-,N/A,,Clear,0,2013-08-30 12:52:00
8:52 AM,71.1,64.9,81,29.96,10.0,SSE,4.6,-,N/A,,Clear,150,2013-08-30 13:52:00
9:52 AM,73.0,64.9,76,29.94,10.0,South,5.8,-,N/A,,Clear,180,2013-08-30 14:52:00
10:52 AM,78.1,66.9,68,29.93,10.0,South,6.9,-,N/A,,Clear,170,2013-08-30 15:52:00
11:52 AM,82.9,66.0,56,29.92,10.0,SSW,11.5,-,N/A,,Clear,200,2013-08-30 16:52:00
12:52 PM,84.9,64.9,51,29.90,10.0,South,10.4,-,N/A,,Clear,190,2013-08-30 17:52:00
1:52 PM,88.0,66.0,48,29.88,10.0,WSW,12.7,16.1,N/A,,Clear,250,2013-08-30 18:52:00
2:52 PM,90.0,60.1,37,29.86,10.0,SW,8.1,-,N/A,,Clear,220,2013-08-30 19:52:00
3:52 PM,89.1,63.0,42,29.84,10.0,SSW,6.9,-,N/A,,Clear,200,2013-08-30 20:52:00
4:52 PM,90.0,63.0,40,29.82,10.0,SSW,4.6,-,N/A,,Clear,200,2013-08-30 21:52:00
5:52 PM,90.0,61.0,38,29.79,10.0,South,6.9,-,N/A,,Clear,190,2013-08-30 22:52:00
6:52 PM,86.0,61.0,43,29.79,10.0,SSW,4.6,-,N/A,,Clear,200,2013-08-30 23:52:00
7:52 PM,82.9,60.1,46,29.79,10.0,WNW,6.9,-,N/A,,Clear,290,2013-08-31 00:52:00
8:52 PM,70.0,62.1,76,29.79,10.0,West,5.8,-,N/A,,Clear,280,2013-08-31 01:52:00
9:52 PM,73.9,59.0,59,29.79,10.0,West,6.9,-,N/A,,Clear,280,2013-08-31 02:52:00
10:52 PM,72.0,59.0,64,29.78,10.0,Calm,Calm,-,N/A,,Clear,0,2013-08-31 03:52:00
11:52 PM,66.9,59.0,76,29.78,10.0,Calm,Calm,-,N/A,,Clear,0,2013-08-31 04:52:00